Elkins, WV

9:26 AM EDT on October 17, 2017 (GMT -0400)
Elkins-Randolph County

Weather History for KEKN - July, 2013

Change the Weather History Date:

Friday, July 19, 2013

  Actual Average Record
Temperature  
Mean Temperature 78 °F 70 °F  
Max Temperature 89 °F 81 °F 91 °F (1930)
Min Temperature 67 °F 59 °F 45 °F (1909)
Degree Days  
Heating Degree Days 0 0  
Month to date heating degree days 0 8  
Since 1 June heating degree days 12 63  
Since 1 July heating degree days 0 8  
Cooling Degree Days 13 5  
Month to date cooling degree days 168 97  
Year to date cooling degree days 290 212  
Since 1 June cooling degree days 265 189  
Growing Degree Days 28 (Base 50)    
Moisture  
Dew Point 67 °F    
Average Humidity 73    
Maximum Humidity 93    
Minimum Humidity 52    
Precipitation  
Precipitation T in 0.18 in 2.46 in (1991)
Month to date precipitation 1.99 3.39  
Year to date precipitation 22.55 27.00  
Snow  
Snow 0.00 in - - ()
Month to date snowfall 0.0  
Since 1 September snowfall 77.5  
Snow Depth 0.00 in    
Sea Level Pressure  
Sea Level Pressure 30.10 in    
Wind  
Wind Speed 3 mph (SW)    
Max Wind Speed 16 mph    
Max Gust Speed 23 mph    
Visibility 7 miles    
Events Rain    
T = Trace of Precipitation, MM = Missing Value Source: NWS Daily Summary

Daily Weather History Graph

Daily Weather History Graph

Search for Another Location

Airport or City:

Trip Planner

Search our weather history database for the weather conditions in past years. The results will help you decide how hot, cold, wet, or windy it might be!

Date:

Astronomy

Jul. 19, 2013 Rise Set
Actual Time 6:09 AM EDT 8:41 PM EDT
Civil Twilight 5:38 AM EDT 9:12 PM EDT
Nautical Twilight 5:00 AM EDT 9:50 PM EDT
Astronomical Twilight 4:17 AM EDT 10:32 PM EDT
Moon 5:42 PM EDT (7/19) 2:49 AM EDT (7/19)
Length of Visible Light 15h 33m
Length of Day
14h 31m
Waxing Gibbous, 86% of the Moon is Illuminated
Jul 19
Waxing Gibbous
Jul 22
Full
Jul 29
Last Quarter
Aug 6
New
Aug 14
First Quarter

Hourly Weather History & Observations

Time (EDT) Temp. Heat Index Dew Point Humidity Pressure Visibility Wind Dir Wind Speed Gust Speed Precip Events Conditions
12:51 AM 68.0 °F - 66.0 °F 93% 30.13 in 10.0 mi Calm Calm - N/A   Clear
1:51 AM 66.9 °F - 64.9 °F 93% 30.12 in 7.0 mi Calm Calm - N/A   Clear
2:02 AM 66.2 °F - 64.4 °F 94% 30.16 in 5.0 mi Calm Calm - N/A   Scattered Clouds
2:11 AM 66.2 °F - 64.4 °F 94% 30.17 in 5.0 mi Calm Calm - N/A   Mostly Cloudy
2:48 AM 68.0 °F - 66.2 °F 94% 30.16 in 1.5 mi Calm Calm - N/A   Overcast
2:51 AM 68.0 °F - 66.9 °F 96% 30.11 in 0.8 mi Calm Calm - N/A   Overcast
3:10 AM 68.0 °F - 66.2 °F 94% 30.16 in 1.5 mi Calm Calm - N/A   Overcast
3:16 AM 68.0 °F - 66.2 °F 94% 30.16 in 3.0 mi Calm Calm - N/A   Overcast
3:26 AM 68.0 °F - 66.2 °F 94% 30.16 in 1.8 mi Calm Calm - N/A   Overcast
3:38 AM 68.0 °F - 66.2 °F 94% 30.15 in 3.0 mi Calm Calm - N/A   Overcast
3:51 AM 68.0 °F - 66.0 °F 93% 30.11 in 6.0 mi Calm Calm - N/A   Overcast
4:41 AM 68.0 °F - 66.2 °F 94% 30.15 in 1.8 mi Calm Calm - N/A   Overcast
4:51 AM 69.1 °F - 66.9 °F 93% 30.11 in 1.8 mi Calm Calm - N/A   Overcast
5:04 AM 68.0 °F - 66.2 °F 94% 30.15 in 3.0 mi Calm Calm - N/A   Overcast
5:46 AM 68.0 °F - 66.2 °F 94% 30.15 in 5.0 mi Calm Calm - N/A   Mostly Cloudy
5:51 AM 68.0 °F - 66.0 °F 93% 30.12 in 5.0 mi Calm Calm - N/A   Mostly Cloudy
6:01 AM 66.2 °F - 66.2 °F 100% 30.15 in 4.0 mi Calm Calm - N/A   Mostly Cloudy
6:14 AM 68.0 °F - 66.2 °F 94% 30.15 in 5.0 mi Calm Calm - N/A   Scattered Clouds
6:30 AM 68.0 °F - 66.2 °F 94% 30.15 in 5.0 mi Calm Calm - N/A   Mostly Cloudy
6:51 AM 68.0 °F - 66.0 °F 93% 30.12 in 7.0 mi Calm Calm - N/A   Mostly Cloudy
7:20 AM 69.8 °F - 66.2 °F 88% 30.15 in 10.0 mi Calm Calm - N/A   Scattered Clouds
7:43 AM 69.8 °F - 66.2 °F 88% 30.15 in 10.0 mi Calm Calm - N/A   Mostly Cloudy
7:51 AM 70.0 °F - 66.9 °F 90% 30.12 in 10.0 mi Calm Calm - N/A   Mostly Cloudy
8:29 AM 71.6 °F - 68.0 °F 88% 30.15 in 10.0 mi Calm Calm - N/A   Scattered Clouds
8:51 AM 73.0 °F - 68.0 °F 84% 30.12 in 10.0 mi Calm Calm - N/A   Partly Cloudy
9:25 AM 75.2 °F - 69.8 °F 83% 30.15 in 10.0 mi Calm Calm - N/A   Mostly Cloudy
9:51 AM 78.1 °F - 70.0 °F 76% 30.11 in 10.0 mi Calm Calm - N/A   Mostly Cloudy
9:59 AM 78.8 °F - 69.8 °F 74% 30.15 in 10.0 mi Calm Calm - N/A   Mostly Cloudy
10:51 AM 82.0 °F 86.3 °F 71.1 °F 69% 30.10 in 10.0 mi SSW 3.5 mph - N/A   Scattered Clouds
11:51 AM 84.9 °F 90.1 °F 71.1 °F 63% 30.08 in 10.0 mi WSW 5.8 mph - N/A   Mostly Cloudy
12:51 PM 86.0 °F 90.7 °F 70.0 °F 59% 30.06 in 10.0 mi WSW 6.9 mph - N/A   Scattered Clouds
1:51 PM 88.0 °F 92.1 °F 69.1 °F 53% 30.03 in 10.0 mi West 6.9 mph - N/A   Partly Cloudy
2:51 PM 89.1 °F 94.1 °F 70.0 °F 53% 30.01 in 10.0 mi WNW 6.9 mph - N/A   Partly Cloudy
3:51 PM 80.1 °F 82.3 °F 66.9 °F 64% 30.01 in 10.0 mi NW 13.8 mph 23.0 mph 0.00 in   Clear
4:51 PM 75.0 °F - 68.0 °F 79% 30.04 in 10.0 mi South 6.9 mph - 0.00 in Rain Light Rain
5:51 PM 75.9 °F - 66.9 °F 74% 30.04 in 10.0 mi SSE 4.6 mph - 0.00 in   Clear
6:51 PM 75.0 °F - 66.0 °F 73% 30.03 in 10.0 mi South 3.5 mph - N/A   Clear
7:51 PM 73.9 °F - 66.0 °F 76% 30.01 in 10.0 mi Calm Calm - N/A   Clear
8:51 PM 73.0 °F - 66.0 °F 79% 30.02 in 10.0 mi South 3.5 mph - N/A   Clear
9:51 PM 73.0 °F - 66.9 °F 81% 30.03 in 10.0 mi Variable 4.6 mph - N/A   Clear
10:51 PM 73.0 °F - 66.9 °F 81% 29.99 in 10.0 mi WSW 5.8 mph - N/A   Clear
11:51 PM 70.0 °F - 64.9 °F 84% 29.97 in 10.0 mi South 3.5 mph - N/A   Clear